Regional Weather Roundup
Issued by NWS

Home | Current Version | Previous Version | Text Only | Print | Product List | Glossary Off
Versions: 1 2 3 4 5 6 7 8 9 10 11 12 13 14 15 16 17 18 19 20 21 22 23 24 25 26 27 28 29 30 31 32 33 34 35 36 37 38 39 40 41 42 43 44 45 46 47 48 49 50

000
ASUS43 KBIS 271720
RWRND

NORTH DAKOTA REGIONAL WEATHER ROUNDUP
NATIONAL WEATHER SERVICE BISMARCK ND
1200 PM CDT WED AUG 27 2014

NOTE: "FAIR" INDICATES FEW OR NO CLOUDS BELOW 12,000 FEET WITH NO
SIGNIFICANT WEATHER AND/OR OBSTRUCTIONS TO VISIBILITY.


NDZ001>003-009>011-017-271800-
NORTHWEST NORTH DAKOTA

CITY           SKY/WX    TMP DP  RH WIND       PRES   REMARKS
WILLISTON      SUNNY     70  57  63 VRB7      30.08F
MINOT          SUNNY     70  55  59 SE10      30.11F
MINOT AFB      SUNNY     70  56  63 S8        30.11F
$$

NDZ018>021-031>035-040>046-271800-
SOUTHWEST NORTH DAKOTA

CITY           SKY/WX    TMP DP  RH WIND       PRES   REMARKS
BISMARCK       SUNNY     68  58  70 SE6       30.16F
DICKINSON      SUNNY     70  58  65 S12       30.12F
GARRISON         N/A     68  59  73 S10       30.14S
HETTINGER ARPT SUNNY     70  57  63 SE12G20   30.15F
$$

NDZ004>008-012>016-024-026-027-054-271800-
NORTHEAST NORTH DAKOTA

CITY           SKY/WX    TMP DP  RH WIND       PRES   REMARKS
GRAND FORKS    MOSUNNY   69  54  58 S7        30.17S
GRND FRKS AFB  SUNNY     69  56  61 SW8       30.18S
DEVILS LAKE    SUNNY     66  54  63 SW6       30.15F
$$

NDZ022-023-025-028>030-036>039-047>053-271800-
SOUTHEAST NORTH DAKOTA

CITY           SKY/WX    TMP DP  RH WIND       PRES   REMARKS
FARGO          MOSUNNY   69  58  67 E3        30.19F
JAMESTOWN      SUNNY     67  58  72 VRB7      30.17F
$$




USA.gov is the U.S. government's official web portal to all federal, state and local government web resources and services.